STARLINK-1672

Last updated on Fri Nov 06 2020 00:02:03 GMT+0000 (Coordinated Universal Time)

1 46537U 20070F 20310.83334491 -.01087723 00000-0 -19069-1 0 9991 2 46537 53.0022 293.1514 0001171 62.9035 317.4757 15.52774410 5273

Satellite not in orbit

STARLINK-1672